Regional Weather Roundup
Issued by NWS Mt. Holly, NJ

Home | Current Version | Previous Version | Text Only | Print | Product List | Glossary On
Versions: 1 2 3 4 5 6 7 8 9 10 11 12 13 14 15 16 17 18 19 20 21 22 23 24 25 26 27 28
000
ASUS41 KPHI 272112
RWRPHI

REGIONAL WEATHER ROUNDUP
NATIONAL WEATHER SERVICE MOUNT HOLLY NJ
500 PM EDT THU JUL 27 2017

NOTE:  "FAIR" INDICATES FEW OR NO CLOUDS BELOW 12,000 FEET WITH NO
SIGNIFICANT WEATHER AND/OR OBSTRUCTIONS TO VISIBILITY.

 * = STATION DOES NOT REPORT PRECIPITATION (E.G. RAIN, SNOW, ETC.)
        OR FOG.

NJZ015>026-272200-
SOUTHERN NEW JERSEY

CITY           SKY/WX    TMP DP  RH WIND       PRES   REMARKS
POMONA         CLOUDY    78  70  76 S9        29.93F
WILDWOOD*      CLOUDY    77  70  79 S14       29.92F
MILLVILLE      PTSUNNY   79  74  84 VRB7      29.91F
WRIGHTSTOWN    CLOUDY    80  69  71 SW9       29.88F
MOUNT HOLLY    CLOUDY    79  72  79 VRB3      29.90F
TRENTON        CLOUDY    78  70  76 SW5       29.91F

$$
NJZ001>014-272200-
NORTHERN NEW JERSEY

CITY           SKY/WX    TMP DP  RH WIND       PRES   REMARKS
SUSSEX         LGT RAIN  74  69  85 CALM      29.92F
ANDOVER*         N/A     73  68  84 VRB3      29.93F
MORRISTOWN     CLOUDY    77  68  73 NW6       29.92F
NEWARK         CLOUDY    78  69  73 NE6       29.91F
TETERBORO      CLOUDY    77  68  73 S6        29.90F
CALDWELL       CLOUDY    76  69  79 CALM      29.92F
SOMERVILLE     CLOUDY    79  70  74 NW5       29.89F
ALLAIRE*       CLOUDY    79  69  71 SW7       29.92F
TOMS RIVER*    CLOUDY    79  69  71 SW12G17   29.92F

$$
PAZ043-044-047-054-055-060>062-066>071-272200-
EASTERN PENNSYLVANIA

CITY           SKY/WX    TMP DP  RH WIND       PRES   REMARKS
PHILADELPHIA   CLOUDY    81  71  71 SE3       29.90F
NORTH PHILA    CLOUDY    81  70  69 SE3       29.92F
BLUE BELL*     CLOUDY    77  70  78 CALM      29.92F
DOYLESTOWN       N/A    N/A N/A N/A MISG      29.91F
QUAKERTOWN*    CLOUDY    75  70  83 CALM      29.93F
PERKASIE*      CLOUDY    75  72  88 CALM      29.93F
POTTSTOWN      CLOUDY    77  71  82 NE3       29.93F
LANCASTER      CLOUDY    81  73  76 NE5       29.90F
COATESVILLE    CLOUDY    79  72  78 CALM      29.93F
READING        CLOUDY    78  71  79 VRB3      29.90F
ALLENTOWN      CLOUDY    76  67  73 CALM      29.92F
MOUNT POCONO   PTSUNNY   72  65  78 CALM      29.97F
HAZLETON         N/A     79  64  61 CALM      29.98F
LEHIGHTON      MOCLDY    77  68  73 CALM      29.92F
WILKES BARRE   MOSUNNY   78  65  63 S3        29.92F

$$
DEZALL-MDZ008-012-015-019-020-272200-
DELAWARE AND EASTERN MARYLAND

CITY           SKY/WX    TMP DP  RH WIND       PRES   REMARKS
WILMINGTON     CLOUDY    80  73  79 SE7       29.90F
DOVER          PTSUNNY   82  82 100 S13       29.88F HX  96
GEORGETOWN     CLOUDY    81  70  69 S12       29.91F
EASTON         CLOUDY    84  72  65 S6        29.93F
ABERDEEN       CLOUDY    81  73  75 S7        29.89F
PATUXENT       CLOUDY    83  74  74 S7        29.89F
OCEAN CITY     CLOUDY    76  70  82 SW14      29.92F
WALLOPS ISLAND CLOUDY    79  72  79 S15       29.92F
CAMBRIDGE      PTSUNNY   82  73  74 CALM      29.90F
SALISBURY      CLOUDY    81  72  74 S3        29.91F

$$
PAZ001-021-NYZ056-072-MDZ011-DCZ001-272200-
OTHER NEARBY LOCATIONS

CITY           SKY/WX    TMP DP  RH WIND       PRES   REMARKS
HARRISBURG     CLOUDY    83  72  69 SE6       29.89F
STATE COLLEGE  MOSUNNY   82  64  54 CALM      29.91F
WILLIAMSPORT   CLOUDY    81  69  67 SE6       29.88F
BINGHAMTON     MOSUNNY   73  64  73 SW8       29.94F
NEW YORK CITY  CLOUDY    74  69  85 S3        29.94F
BALTIMORE      PTSUNNY   86  71  60 W5        29.88F HX  91
WASHINGTON DC  CLOUDY    85  75  72 S8        29.88F HX  93

$$




USA.gov is the U.S. government's official web portal to all federal, state and local government web resources and services.